[[{"header":{"parameterUnit":"m.s-1","parameterCategory":2,"la1":30.2991,"la2":30.254,"lo1":-89.0895,"lo2":-89.0444,"dy":0.0017,"dx":0.0017,"nx":28,"ny":28,"refTime":"2024-07-17T21:00:00:Z","depth":"0","parameterNumber":2,"parameterNumberName":"U-component_of_CURRENTS"},"data":[0,0,0,0,0,0,0,0,0,0,0,0,0,0,0,0,0,0,0,0,0,0,0,0,0,0,0,0,0,0,0,0,0,0,0,0,0,0,0,0,0,0,0,0,0,0,0,0,0,0,0,0,0,0,0,0,0,0,0.1271,0.1271,0,0.1262,0.1262,0.1261,0.1235,0.1235,0.1234,0.1234,0.1244,0.1245,0.1245,0,0,0,0,0,0,0,0,0,0,0,0,0,0.124,0.124,0.1271,0.1271,0.1271,0.1262,0.1262,0.1261,0.1235,0.1235,0.1234,0.1234,0.1244,0.1244,0.1245,0,0,0,0,0,0,0,0,0,0,0,0,0,0.1243,0.1241,0.1271,0.1258,0.1257,0.1262,0.1262,0.1261,0.1235,0.1235,0.1234,0.1234,0.1243,0.1244,0.1245,0.1265,0,0,0.1248,0.1249,0,0,0,0,0,0,0,0,0.1243,0.1244,0.126,0.1259,0.1258,0.125,0.1254,0.1264,0.1236,0.1242,0.1234,0.1233,0.1249,0.125,0.1247,0.1265,0.1266,0.1249,0.1249,0.125,0.125,0,0,0,0,0,0,0,0.1243,0.1244,0.1266,0.126,0.1259,0.1243,0.1243,0.1255,0.1249,0.1242,0.124,0.1241,0.1248,0.1246,0.1247,0.1266,0.1249,0.1249,0.125,0.125,0.1369,0.1372,0,0,0,0,0,0,0.1249,0.1244,0.1267,0.1266,0.125,0.1245,0.1245,0.1252,0.1248,0.1247,0.1242,0.124,0.1245,0.1246,0.1248,0.1325,0.125,0.1251,0.1251,0.1367,0.137,0.1373,0,0,0,0,0,0,0.1248,0.1251,0.1267,0.1255,0.1256,0.1246,0.1255,0.1252,0.1254,0.1249,0.1247,0.1246,0.1244,0.1246,0.1275,0.1323,0.1251,0.1252,0.1364,0.1368,0.1371,0.1444,0,0,0,0,0,0,0.1248,0.1251,0.126,0.1256,0.1257,0.1278,0.1256,0.1253,0.1256,0.1254,0.1252,0.1252,0.1244,0.1274,0.1276,0.1323,0.1253,0.136,0.1365,0.137,0.1438,0.145,0.146,0,0,0,0,0,0.1247,0.1262,0.126,0.1263,0.1269,0.1279,0.1279,0.1267,0.1257,0.1264,0.127,0.1252,0.1306,0.1276,0.1278,0.1327,0.1358,0.1364,0.137,0.1434,0.1448,0.1459,0,0,0,0,0,0,0.1249,0.1261,0.1259,0.1276,0.1281,0.1275,0.1282,0.1275,0.1283,0.1283,0.1274,0.1276,0.1318,0.1317,0.1284,0.1378,0.1334,0.1341,0.1382,0.1395,0.1406,0.1472,0.1254,0,0,0,0,0,0.1256,0.1273,0.1277,0.1292,0.1296,0.1291,0.1293,0.1289,0.1295,0.1296,0.1298,0.1315,0.1345,0.1363,0.1376,0.1426,0.1543,0.1464,0.1474,0.1483,0.1542,0.1773,0.1812,0.1391,0.1391,0.1391,0,0,0.1261,0.127,0.1279,0.1294,0.1296,0.1314,0.1291,0.1302,0.1328,0.1299,0.1336,0.1342,0.1363,0.1416,0.1438,0.1422,0.1663,0.149,0.1498,0.1553,0.1784,0.1825,0.1862,0.1395,0.1395,0.1394,0,0,0.1279,0.1289,0.1308,0.1317,0.1329,0.1333,0.134,0.1344,0.1359,0.139,0.139,0.1446,0.1454,0.1512,0.1535,0.1623,0.1703,0.1605,0.1725,0.1947,0.1985,0.202,0.2223,0.2275,0.1622,0.1622,0.1622,0,0.128,0.1309,0.1314,0.1334,0.1352,0.1346,0.1374,0.1392,0.1408,0.146,0.1411,0.1533,0.152,0.1663,0.1678,0.1653,0.1788,0.1665,0.1967,0.2004,0.2038,0.2238,0.2295,0.1626,0.1626,0.1625,0.1625,0,0.1314,0.1335,0.1349,0.1379,0.1402,0.1422,0.1452,0.1486,0.1497,0.1538,0.1661,0.1679,0.178,0.1764,0.1736,0.197,0.199,0.1945,0.194,0.2086,0.2285,0.2344,0.1632,0.163,0.1629,0.1628,0,0,0.1316,0.1363,0.1365,0.1399,0.1429,0.1459,0.1521,0.1606,0.1712,0.1733,0.19,0.1933,0.1987,0.2024,0.2028,0.2191,0.2509,0.2174,0.2184,0.2389,0.3028,0.2968,0.3025,0.2528,0.2538,0.2546,0.3069,0,0.1338,0.1387,0.141,0.1474,0.1508,0.1545,0.1631,0.1716,0.1794,0.1954,0.2037,0.2174,0.2078,0.2156,0.2312,0.2454,0.2668,0.2373,0.2847,0.2862,0.2802,0.3093,0.3017,0.3472,0.3127,0.3137,0.3144,0,0.137,0.1399,0.1462,0.1563,0.1589,0.1643,0.1814,0.189,0.21,0.2178,0.2347,0.2422,0.2656,0.2551,0.2962,0.2784,0.2944,0.3046,0.3068,0.304,0.2913,0.3271,0.3591,0.3477,0.3234,0.3227,0.322,0,0.1396,0.1448,0.1507,0.153,0.1638,0.1711,0.179,0.1975,0.2106,0.2362,0.2502,0.2762,0.292,0.3169,0.3306,0.3205,0.3759,0.3651,0.3774,0.377,0.3818,0.3799,0.4102,0.4035,0.4034,0.4033,0.4031,0,0.1434,0.1491,0.1529,0.1573,0.1714,0.1762,0.1972,0.2087,0.2312,0.2518,0.2645,0.2859,0.3088,0.3363,0.3497,0.3824,0.3942,0.391,0.3949,0.3832,0.381,0.3792,0.3723,0.4052,0.4048,0.4044,0.4041,0,0.1529,0.151,0.1618,0.171,0.1743,0.1871,0.2069,0.2243,0.24,0.2683,0.2777,0.3045,0.3383,0.3594,0.4009,0.4073,0.4295,0.4445,0.4266,0.4273,0.4233,0.4169,0.4404,0.4284,0.4759,0.4761,0.4763,0,0.1623,0.167,0.1753,0.1828,0.189,0.2041,0.2177,0.2309,0.2474,0.2781,0.2937,0.3289,0.3509,0.4061,0.4292,0.464,0.4436,0.4745,0.453,0.4333,0.4294,0.402,0.3878,0.4647,0.4648,0.4648,0.4649,0,0.1866,0.1872,0.1959,0.2052,0.2166,0.2272,0.2432,0.2535,0.2701,0.2878,0.3118,0.3296,0.379,0.4084,0.4479,0.4663,0.4527,0.4768,0.4672,0.4367,0.3999,0.3861,0.416,0.4655,0.4655,0.4654,0.4654,0.4653,0.2106,0.2181,0.2233,0.2314,0.2413,0.2444,0.2503,0.2636,0.2781,0.2963,0.3165,0.3391,0.3841,0.4376,0.4505,0.4726,0.4614,0.4696,0.4691,0.4469,0.4184,0.4465,0.4885,0.4885,0.4886,0.4886,0.4887,0,0.2333,0.2336,0.2482,0.2499,0.2554,0.2542,0.2633,0.2639,0.2709,0.2955,0.3103,0.3546,0.3908,0.4255,0.469,0.4661,0.442,0.4592,0.4229,0.4132,0.4556,0.4368,0.456,0.456,0.456,0.456,0.456,0.456,0.2446,0.253,0.2507,0.2559,0.2564,0.2539,0.2518,0.2541,0.2662,0.2869,0.3095,0.3315,0.3831,0.441,0.4598,0.4559,0.4222,0.4128,0.4029,0.4351,0.4356,0.4361,0.4166,0.4313,0.4312,0.3416,0.3411,0.3406]},{"header":{"parameterUnit":"m.s-1","parameterCategory":2,"la1":30.2991,"la2":30.254,"lo1":-89.0895,"lo2":-89.0444,"dy":0.0017,"dx":0.0017,"nx":28,"ny":28,"refTime":"2024-07-17T21:00:00:Z","depth":"0","parameterNumber":3,"parameterNumberName":"V-component_of_CURRENTS"},"data":[0,0,0,0,0,0,0,0,0,0,0,0,0,0,0,0,0,0,0,0,0,0,0,0,0,0,0,0,0,0,0,0,0,0,0,0,0,0,0,0,0,0,0,0,0,0,0,0,0,0,0,0,0,0,0,0,0,0,-0.0855,-0.0856,0,-0.0972,-0.0973,-0.0975,-0.1054,-0.1054,-0.1054,-0.1055,-0.1192,-0.1195,-0.1199,0,0,0,0,0,0,0,0,0,0,0,0,0,-0.0764,-0.0765,-0.0854,-0.0856,-0.0857,-0.0972,-0.0973,-0.0975,-0.1054,-0.1054,-0.1055,-0.1055,-0.1191,-0.1195,-0.1199,0,0,0,0,0,0,0,0,0,0,0,0,0,-0.0837,-0.0766,-0.0854,-0.0908,-0.0914,-0.0971,-0.0974,-0.0976,-0.1054,-0.1054,-0.1055,-0.1055,-0.119,-0.1195,-0.1199,-0.1221,0,0,-0.1215,-0.1217,0,0,0,0,0,0,0,0,-0.0833,-0.084,-0.0899,-0.0904,-0.0911,-0.0996,-0.0992,-0.1058,-0.1054,-0.1003,-0.1055,-0.1055,-0.1126,-0.1137,-0.1161,-0.1228,-0.1233,-0.1215,-0.1218,-0.1221,-0.1222,0,0,0,0,0,0,0,-0.0827,-0.0836,-0.0904,-0.09,-0.0907,-0.0949,-0.0959,-0.1005,-0.1063,-0.1008,-0.1013,-0.1022,-0.113,-0.1156,-0.1165,-0.1235,-0.1215,-0.122,-0.1223,-0.1225,-0.1303,-0.1302,0,0,0,0,0,0,-0.0804,-0.0831,-0.09,-0.0907,-0.0869,-0.0949,-0.0961,-0.0971,-0.1062,-0.1076,-0.1021,-0.1025,-0.1147,-0.1159,-0.117,-0.1159,-0.1221,-0.1225,-0.1228,-0.1304,-0.1303,-0.1302,0,0,0,0,0,0,-0.0801,-0.0809,-0.0895,-0.087,-0.0883,-0.095,-0.096,-0.0973,-0.1001,-0.1072,-0.1087,-0.1036,-0.1148,-0.1163,-0.121,-0.1167,-0.1228,-0.1232,-0.1305,-0.1304,-0.1302,-0.1164,0,0,0,0,0,0,-0.0798,-0.0807,-0.0808,-0.0868,-0.0884,-0.0922,-0.096,-0.0974,-0.1004,-0.1011,-0.109,-0.1103,-0.115,-0.1202,-0.1214,-0.1175,-0.1236,-0.1306,-0.1304,-0.1303,-0.117,-0.1159,-0.1149,0,0,0,0,0,-0.0795,-0.0792,-0.0807,-0.0816,-0.0881,-0.0922,-0.0934,-0.0985,-0.1004,-0.1013,-0.1066,-0.1101,-0.1199,-0.1206,-0.1221,-0.1181,-0.1307,-0.1305,-0.1303,-0.1175,-0.1161,-0.1149,0,0,0,0,0,0,-0.0756,-0.0801,-0.0819,-0.0831,-0.0869,-0.0934,-0.0948,-0.098,-0.103,-0.1036,-0.1103,-0.112,-0.1142,-0.1188,-0.1193,-0.12,-0.1253,-0.1254,-0.115,-0.1138,-0.1127,-0.0989,-0.124,0,0,0,0,0,-0.0744,-0.0754,-0.0803,-0.0813,-0.0828,-0.0885,-0.0909,-0.0941,-0.0991,-0.1014,-0.1065,-0.1114,-0.1144,-0.1163,-0.1209,-0.1219,-0.1162,-0.1201,-0.1189,-0.118,-0.1079,-0.0975,-0.0942,-0.1295,-0.1295,-0.1295,0,0,-0.0731,-0.0758,-0.0764,-0.0805,-0.084,-0.0839,-0.0902,-0.093,-0.0913,-0.102,-0.1023,-0.1087,-0.1143,-0.1151,-0.1162,-0.1183,-0.1059,-0.1177,-0.1168,-0.107,-0.0969,-0.0933,-0.0902,-0.1293,-0.1294,-0.1294,0,0,-0.0704,-0.0733,-0.0728,-0.0749,-0.0789,-0.0814,-0.0815,-0.0873,-0.0883,-0.0906,-0.0962,-0.0973,-0.1062,-0.1051,-0.1066,-0.1017,-0.1012,-0.1071,-0.0892,-0.0795,-0.0762,-0.0733,-0.0639,-0.0602,-0.1056,-0.1055,-0.1055,0,-0.0681,-0.0674,-0.0733,-0.0727,-0.071,-0.079,-0.0752,-0.0782,-0.0843,-0.079,-0.0889,-0.0891,-0.0982,-0.0889,-0.0896,-0.0979,-0.0931,-0.094,-0.0771,-0.0741,-0.0713,-0.0624,-0.0585,-0.1049,-0.1049,-0.105,-0.1051,0,-0.0647,-0.0633,-0.063,-0.0629,-0.0626,-0.0614,-0.0638,-0.0624,-0.0651,-0.0648,-0.0585,-0.0689,-0.0647,-0.0722,-0.0807,-0.0652,-0.0686,-0.0775,-0.0786,-0.0667,-0.0585,-0.0546,-0.1039,-0.1041,-0.1043,-0.1045,0,0,-0.0587,-0.0597,-0.0588,-0.0529,-0.0556,-0.0524,-0.0479,-0.0402,-0.0276,-0.0366,-0.0188,-0.0297,-0.0304,-0.0316,-0.0414,-0.0365,-0.0199,-0.0481,-0.048,-0.035,0.0035,-0.0046,-0.0013,-0.0267,-0.0259,-0.0253,0.0007,0,-0.052,-0.0457,-0.048,-0.0367,-0.0312,-0.0317,-0.023,-0.0169,-0.0133,0.0003,-0.0037,0.0045,-0.0166,-0.013,-0.0106,-0.0168,-0.0086,-0.0257,-0.0126,-0.0119,-0.0176,0.0033,-0.0026,0.0196,0.0044,0.005,0.0055,0,-0.0446,-0.0403,-0.0293,-0.0147,-0.0114,-0.0045,0.0177,0.0237,0.0385,0.0426,0.0516,0.0476,0.0556,0.0336,0.0401,0.0296,0.022,0.0148,0.0154,0.0087,-0.0126,0.0054,0.0272,-0.0056,0.0114,0.0109,0.0105,0,-0.0312,-0.0233,-0.0114,-0.0085,0.0028,0.0149,0.0242,0.0399,0.0541,0.0732,0.0862,0.0926,0.0983,0.0925,0.072,0.06,0.0783,0.0596,0.0481,0.0472,0.0465,0.0443,0.0431,0.0722,0.0721,0.0721,0.072,0,-0.019,-0.0072,-0.0027,0.0047,0.0286,0.0315,0.0603,0.0709,0.0914,0.113,0.1109,0.1277,0.113,0.1155,0.0949,0.0865,0.0981,0.0629,0.0579,0.0499,0.0478,0.022,0.003,0.073,0.0728,0.0726,0.0725,0,-0.0012,-0.0022,0.0148,0.0282,0.0351,0.0543,0.0801,0.1016,0.1161,0.1449,0.1523,0.1623,0.1638,0.1474,0.1399,0.118,0.092,0.1009,0.0918,0.0853,0.0391,0.0211,0.032,0.0158,0.0991,0.0991,0.0991,0,0.0109,0.0191,0.0335,0.0452,0.0536,0.0781,0.097,0.1144,0.135,0.1634,0.1796,0.1906,0.1967,0.1862,0.1534,0.131,0.097,0.1087,0.084,0.0471,0.0235,0.013,-0.0025,0.0879,0.0879,0.0878,0.0878,0,0.0377,0.0394,0.051,0.0702,0.0898,0.1117,0.1371,0.154,0.1743,0.1937,0.2162,0.2237,0.2142,0.1907,0.1599,0.1372,0.084,0.1064,0.074,0.0253,0.0097,-0.0123,0.0576,0.0872,0.0873,0.0873,0.0873,0.0874,0.0604,0.0714,0.081,0.1004,0.1195,0.1403,0.1564,0.1778,0.2029,0.2261,0.2359,0.2475,0.2174,0.1739,0.1396,0.0742,0.0769,0.0491,0.0346,0.0307,0.0038,0.0725,0.0889,0.089,0.089,0.0891,0.0891,0,0.0871,0.0929,0.1119,0.1295,0.1474,0.1533,0.1799,0.191,0.2105,0.2357,0.2492,0.2475,0.1944,0.1432,0.0636,0.0128,-0.0092,-0.0165,-0.035,-0.0451,0.0232,0.0097,0.0025,0.0025,0.0025,0.0025,0.0026,0.0026,0.1021,0.1181,0.1211,0.1486,0.1599,0.1793,0.1893,0.2032,0.2207,0.2455,0.2608,0.2751,0.2433,0.0865,-0.0309,-0.0599,-0.1015,-0.1021,-0.1232,-0.0864,-0.0817,-0.0772,-0.0944,-0.1234,-0.1235,-0.1886,-0.1893,-0.1898]}],[{"header":{"parameterUnit":"m.s-1","parameterCategory":2,"la1":30.2991,"la2":30.254,"lo1":-89.0895,"lo2":-89.0444,"dy":0.0017,"dx":0.0017,"nx":28,"ny":28,"refTime":"2024-07-17T21:00:00:Z","depth":"2","parameterNumber":2,"parameterNumberName":"U-component_of_CURRENTS"},"data":[0,0,0,0,0,0,0,0,0,0,0,0,0,0,0,0,0,0,0,0,0,0,0,0,0,0,0,0,0,0,0,0,0,0,0,0,0,0,0,0,0,0,0,0,0,0,0,0,0,0,0,0,0,0,0,0,0,0,0.1167,0.1168,0,0.1226,0.1226,0.1227,0.1221,0.122,0.1219,0.1218,0.1203,0.1203,0.1204,0,0,0,0,0,0,0,0,0,0,0,0,0,0.1087,0.1088,0.1167,0.1168,0.1169,0.1225,0.1226,0.1227,0.1221,0.122,0.1219,0.1218,0.1203,0.1203,0.1204,0,0,0,0,0,0,0,0,0,0,0,0,0,0.1131,0.1089,0.1167,0.1173,0.1174,0.1225,0.1226,0.1227,0.1221,0.122,0.1219,0.1218,0.1203,0.1203,0.1204,0.1233,0,0,0.1206,0.1206,0,0,0,0,0,0,0,0,0.1128,0.1134,0.1171,0.1173,0.1174,0.1215,0.1192,0.1226,0.1222,0.1203,0.1218,0.1217,0.1201,0.1202,0.1216,0.1233,0.1232,0.1206,0.1206,0.1206,0.1206,0,0,0,0,0,0,0,0.1125,0.1131,0.119,0.1172,0.1174,0.1185,0.119,0.1199,0.1207,0.1204,0.1204,0.1212,0.1201,0.1216,0.1216,0.1232,0.1206,0.1206,0.1206,0.1207,0.1288,0.129,0,0,0,0,0,0,0.1119,0.1129,0.1188,0.1192,0.1148,0.1188,0.1193,0.1203,0.1208,0.1209,0.1213,0.1212,0.1215,0.1215,0.1215,0.1265,0.1206,0.1207,0.1207,0.1286,0.1288,0.129,0,0,0,0,0,0,0.1117,0.1124,0.1186,0.1161,0.117,0.119,0.1202,0.1205,0.1218,0.1216,0.1214,0.1223,0.1214,0.1214,0.124,0.1264,0.1207,0.1208,0.1284,0.1287,0.1289,0.1356,0,0,0,0,0,0,0.1115,0.1123,0.113,0.1161,0.1171,0.1226,0.1203,0.1207,0.1225,0.1224,0.1225,0.1222,0.1213,0.1239,0.124,0.1263,0.1208,0.1282,0.1285,0.1288,0.1351,0.1361,0.1368,0,0,0,0,0,0.1112,0.1134,0.113,0.1137,0.1179,0.1228,0.1235,0.1243,0.1227,0.1247,0.125,0.1222,0.1261,0.1242,0.1242,0.1266,0.128,0.1284,0.1288,0.1348,0.1359,0.1368,0,0,0,0,0,0,0.1103,0.1136,0.1132,0.1162,0.1193,0.1227,0.1247,0.1249,0.1269,0.1262,0.1249,0.1249,0.1281,0.1269,0.1248,0.1301,0.1264,0.1269,0.1309,0.132,0.1328,0.1317,0.1209,0,0,0,0,0,0.1104,0.1129,0.116,0.1185,0.12,0.1222,0.1241,0.125,0.1271,0.1278,0.1278,0.1283,0.1301,0.1305,0.1319,0.1348,0.1368,0.1364,0.1372,0.1379,0.1373,0.1453,0.1468,0.1304,0.1303,0.1303,0,0,0.1107,0.1129,0.1142,0.1185,0.1207,0.1239,0.1231,0.1268,0.129,0.1273,0.1303,0.1314,0.1318,0.1356,0.1368,0.1345,0.144,0.1385,0.1391,0.138,0.1459,0.1475,0.1489,0.1306,0.1306,0.1305,0,0,0.1132,0.1147,0.1174,0.1203,0.1242,0.1259,0.127,0.1306,0.1319,0.1356,0.1351,0.1379,0.14,0.1414,0.1421,0.1484,0.1487,0.1488,0.1517,0.1595,0.1609,0.1622,0.1682,0.17,0.1487,0.1487,0.1487,0,0.1127,0.1162,0.1192,0.1226,0.1242,0.1267,0.1292,0.1324,0.1363,0.1381,0.137,0.1431,0.1427,0.148,0.1498,0.1502,0.1545,0.1476,0.1607,0.162,0.1631,0.169,0.1708,0.1491,0.1491,0.149,0.149,0,0.1174,0.1195,0.1218,0.1259,0.1289,0.132,0.1357,0.1389,0.14,0.1428,0.1486,0.1505,0.1541,0.1548,0.1536,0.1618,0.1622,0.1614,0.158,0.1652,0.1709,0.1727,0.1496,0.1495,0.1494,0.1493,0,0,0.1161,0.1232,0.1235,0.1249,0.1301,0.133,0.1376,0.1426,0.1469,0.1507,0.1568,0.1596,0.1618,0.1627,0.1635,0.1684,0.1802,0.1682,0.1685,0.174,0.198,0.1902,0.1913,0.1829,0.1833,0.1835,0.1992,0,0.1174,0.1226,0.1262,0.1303,0.1322,0.1361,0.1408,0.146,0.151,0.1587,0.162,0.1689,0.1649,0.1688,0.1733,0.1795,0.185,0.1759,0.1903,0.1906,0.1827,0.1932,0.1785,0.1906,0.2009,0.2012,0.2015,0,0.1185,0.1219,0.1253,0.1311,0.1327,0.1361,0.1433,0.1489,0.1598,0.1646,0.172,0.1768,0.1853,0.1815,0.1947,0.1899,0.1939,0.1972,0.198,0.1889,0.186,0.1848,0.1934,0.2044,0.2042,0.204,0.2038,0,0.1132,0.1202,0.1222,0.1241,0.1322,0.1347,0.1399,0.1497,0.1572,0.1706,0.1784,0.188,0.1961,0.2027,0.2079,0.2042,0.2225,0.2189,0.2153,0.2148,0.2037,0.2016,0.2285,0.2285,0.2285,0.2284,0.2284,0,0.1106,0.1118,0.1202,0.1211,0.1271,0.1327,0.1415,0.1488,0.1622,0.1731,0.1821,0.1923,0.2023,0.2128,0.2149,0.2212,0.2291,0.2177,0.2193,0.2056,0.2036,0.2152,0.2134,0.229,0.2289,0.2288,0.2287,0,0.1032,0.1077,0.112,0.1209,0.1243,0.129,0.1434,0.1514,0.1634,0.1787,0.1843,0.2006,0.2141,0.222,0.235,0.2307,0.2369,0.2363,0.2182,0.2171,0.2222,0.2207,0.2358,0.2357,0.2356,0.2355,0.2354,0,0.0994,0.1005,0.1118,0.1171,0.1212,0.1301,0.1378,0.1509,0.1603,0.1823,0.1896,0.2079,0.2181,0.2336,0.2329,0.2381,0.2401,0.2239,0.2117,0.2235,0.2236,0.2221,0.2207,0.2017,0.2013,0.2011,0.2008,0,0.0942,0.0986,0.104,0.1147,0.1227,0.1323,0.1432,0.1497,0.1662,0.1775,0.1937,0.2038,0.2203,0.2202,0.2251,0.2231,0.2214,0.2179,0.241,0.1994,0.1918,0.1916,0.1913,0.1983,0.1986,0.1988,0.1989,0.199,0.092,0.0956,0.1043,0.1134,0.1235,0.131,0.1355,0.1471,0.1576,0.1713,0.1852,0.1945,0.2031,0.2024,0.2014,0.1992,0.2095,0.1999,0.2006,0.2017,0.1922,0.1846,0.1881,0.1882,0.1884,0.1885,0.1887,0,0.0894,0.0948,0.1033,0.1133,0.1204,0.1279,0.1379,0.1399,0.147,0.1607,0.1711,0.1622,0.1674,0.1776,0.1721,0.1716,0.1677,0.165,0.1609,0.1635,0.1658,0.1543,0.1402,0.1401,0.1399,0.1398,0,0,0.0889,0.0942,0.0976,0.1063,0.1144,0.1202,0.1235,0.1271,0.1345,0.1351,0.1396,0.1548,0.1693,0.1506,0.1511,0.1471,0.1526,0.1407,0.1797,0.1773,0.1794,0.1865,0.1718,0,0,0,0,0]},{"header":{"parameterUnit":"m.s-1","parameterCategory":2,"la1":30.2991,"la2":30.254,"lo1":-89.0895,"lo2":-89.0444,"dy":0.0017,"dx":0.0017,"nx":28,"ny":28,"refTime":"2024-07-17T21:00:00:Z","depth":"2","parameterNumber":3,"parameterNumberName":"V-component_of_CURRENTS"},"data":[0,0,0,0,0,0,0,0,0,0,0,0,0,0,0,0,0,0,0,0,0,0,0,0,0,0,0,0,0,0,0,0,0,0,0,0,0,0,0,0,0,0,0,0,0,0,0,0,0,0,0,0,0,0,0,0,0,0,-0.0264,-0.0264,0,-0.0267,-0.0267,-0.0267,-0.029,-0.029,-0.0291,-0.0291,-0.0309,-0.0309,-0.031,0,0,0,0,0,0,0,0,0,0,0,0,0,-0.0339,-0.0337,-0.0264,-0.0264,-0.0264,-0.0267,-0.0267,-0.0268,-0.029,-0.029,-0.0291,-0.0291,-0.0309,-0.0309,-0.031,0,0,0,0,0,0,0,0,0,0,0,0,0,-0.0322,-0.0336,-0.0264,-0.0274,-0.0275,-0.0267,-0.0267,-0.0268,-0.029,-0.029,-0.0291,-0.0291,-0.0309,-0.0309,-0.031,-0.03,0,0,-0.031,-0.031,0,0,0,0,0,0,0,0,-0.0323,-0.0319,-0.0273,-0.0273,-0.0274,-0.0277,-0.03,-0.0278,-0.0289,-0.0286,-0.0291,-0.0292,-0.0298,-0.0299,-0.0301,-0.0301,-0.0302,-0.031,-0.031,-0.0311,-0.0311,0,0,0,0,0,0,0,-0.0324,-0.032,-0.0267,-0.0272,-0.0273,-0.0299,-0.0297,-0.0297,-0.0291,-0.0286,-0.0288,-0.0285,-0.0299,-0.0301,-0.0302,-0.0302,-0.031,-0.0311,-0.0311,-0.0311,-0.0286,-0.0285,0,0,0,0,0,0,-0.0315,-0.032,-0.0267,-0.0267,-0.0298,-0.0297,-0.0294,-0.0277,-0.0291,-0.0292,-0.0284,-0.0285,-0.03,-0.0302,-0.0303,-0.0289,-0.0311,-0.0311,-0.0311,-0.0286,-0.0285,-0.0285,0,0,0,0,0,0,-0.0317,-0.031,-0.0267,-0.0294,-0.029,-0.0294,-0.0275,-0.0277,-0.0276,-0.0288,-0.0291,-0.0281,-0.0301,-0.0302,-0.0301,-0.029,-0.0311,-0.0311,-0.0287,-0.0286,-0.0285,-0.0263,0,0,0,0,0,0,-0.0318,-0.031,-0.0297,-0.0292,-0.0288,-0.0256,-0.0274,-0.0276,-0.0272,-0.0274,-0.0286,-0.0289,-0.0301,-0.0301,-0.0302,-0.029,-0.0311,-0.0288,-0.0287,-0.0285,-0.0264,-0.0261,-0.0258,0,0,0,0,0,-0.0321,-0.0291,-0.0296,-0.029,-0.0268,-0.0255,-0.0255,-0.0263,-0.0271,-0.0265,-0.0278,-0.0288,-0.0292,-0.0301,-0.0302,-0.029,-0.0289,-0.0287,-0.0286,-0.0266,-0.0262,-0.0258,0,0,0,0,0,0,-0.0308,-0.029,-0.0295,-0.0259,-0.0258,-0.0258,-0.0249,-0.0257,-0.0261,-0.0263,-0.0281,-0.0284,-0.0279,-0.0284,-0.0293,-0.0277,-0.029,-0.0289,-0.0275,-0.0271,-0.0268,-0.0268,-0.0311,0,0,0,0,0,-0.03,-0.0278,-0.0271,-0.0244,-0.024,-0.0246,-0.0242,-0.0246,-0.0248,-0.0251,-0.0259,-0.0265,-0.0271,-0.0271,-0.0275,-0.0265,-0.0305,-0.0256,-0.0253,-0.025,-0.025,-0.0315,-0.0319,-0.0279,-0.0279,-0.0279,0,0,-0.0286,-0.0275,-0.0261,-0.0241,-0.0241,-0.0228,-0.0245,-0.0231,-0.0224,-0.0251,-0.0241,-0.0254,-0.0267,-0.026,-0.0257,-0.0263,-0.0281,-0.0248,-0.0246,-0.0247,-0.0314,-0.0318,-0.0322,-0.0277,-0.0278,-0.0278,0,0,-0.0252,-0.0239,-0.0215,-0.0211,-0.0205,-0.0208,-0.0202,-0.0198,-0.0201,-0.0193,-0.0214,-0.0224,-0.022,-0.0236,-0.0242,-0.022,-0.0264,-0.0211,-0.0194,-0.0257,-0.0261,-0.0266,-0.0322,-0.0331,-0.0207,-0.0207,-0.0207,0,-0.0235,-0.0204,-0.0207,-0.0189,-0.0177,-0.0196,-0.017,-0.0177,-0.0175,-0.0171,-0.0184,-0.0198,-0.0212,-0.0219,-0.0213,-0.0215,-0.0256,-0.0211,-0.0256,-0.0261,-0.0266,-0.0322,-0.0333,-0.0206,-0.0206,-0.0206,-0.0206,0,-0.0193,-0.017,-0.0154,-0.0138,-0.0128,-0.0107,-0.0114,-0.0107,-0.0113,-0.0124,-0.0129,-0.016,-0.0168,-0.0174,-0.0188,-0.0217,-0.0237,-0.025,-0.0272,-0.0269,-0.0328,-0.034,-0.0204,-0.0205,-0.0205,-0.0205,0,0,-0.0137,-0.0124,-0.0118,-0.0101,-0.0095,-0.0076,-0.0065,-0.0054,-0.0045,-0.0068,-0.0064,-0.0093,-0.0117,-0.0127,-0.0153,-0.0208,-0.0283,-0.0239,-0.0243,-0.0305,-0.0424,-0.0427,-0.0441,-0.0311,-0.0312,-0.0314,-0.0451,0,-0.0099,-0.0056,-0.0059,-0.0015,0.0011,0.0002,0.0016,0.0017,0.0005,-0.0002,-0.0052,-0.0062,-0.0098,-0.0104,-0.0167,-0.0254,-0.0313,-0.0244,-0.0408,-0.0413,-0.0425,-0.0454,-0.0404,-0.0522,-0.0463,-0.0465,-0.0467,0,-0.0053,-0.0029,0.0019,0.0055,0.0067,0.0087,0.0115,0.0123,0.0096,0.0086,0.0049,0.0005,-0.0068,-0.0102,-0.0269,-0.0225,-0.0317,-0.0395,-0.0402,-0.0421,-0.0438,-0.0514,-0.0546,-0.0488,-0.0486,-0.0484,-0.0483,0,-0.001,0.0033,0.0076,0.0087,0.0115,0.0142,0.0159,0.0154,0.0163,0.0133,0.0125,0.0034,-0.0014,-0.0151,-0.03,-0.0293,-0.0495,-0.0505,-0.0597,-0.0598,-0.0595,-0.0592,-0.0627,-0.0627,-0.0627,-0.0626,-0.0626,0,0.0035,0.0072,0.01,0.0124,0.0182,0.019,0.0233,0.0237,0.0229,0.0236,0.0168,0.0143,-0.0033,-0.016,-0.03,-0.0488,-0.05,-0.0606,-0.0639,-0.0583,-0.0578,-0.0574,-0.0566,-0.0632,-0.063,-0.0629,-0.0629,0,0.0065,0.0082,0.0135,0.018,0.0199,0.024,0.028,0.03,0.0294,0.0295,0.0287,0.0199,0.0042,-0.014,-0.0364,-0.0483,-0.066,-0.0717,-0.0634,-0.0655,-0.0723,-0.0712,-0.0848,-0.085,-0.0851,-0.0852,-0.0853,0,0.0075,0.0102,0.0169,0.0199,0.022,0.0275,0.0305,0.033,0.0348,0.033,0.033,0.0205,0.0126,-0.0196,-0.0418,-0.0667,-0.069,-0.0783,-0.076,-0.073,-0.0749,-0.0736,-0.0724,-0.0752,-0.0752,-0.0752,-0.0752,0,0.008,0.0105,0.0141,0.0207,0.0254,0.032,0.0369,0.0398,0.0419,0.0429,0.0424,0.0367,0.0096,-0.0134,-0.0459,-0.0613,-0.074,-0.079,-0.0806,-0.069,-0.0647,-0.0663,-0.0653,-0.0752,-0.0752,-0.0752,-0.0752,-0.0752,0.006,0.0091,0.0131,0.0207,0.0267,0.0354,0.0426,0.0473,0.0527,0.0558,0.0483,0.0428,0.0165,-0.0225,-0.0478,-0.072,-0.074,-0.0827,-0.0824,-0.0823,-0.0773,-0.0733,-0.0845,-0.0845,-0.0846,-0.0846,-0.0846,0,0.0021,0.0068,0.0124,0.022,0.0308,0.0359,0.0459,0.053,0.0623,0.0623,0.0617,0.038,0.0121,-0.0147,-0.0501,-0.0745,-0.0736,-0.0807,-0.0747,-0.0747,-0.0748,-0.0691,-0.0743,-0.0743,-0.0743,-0.0743,0,0,-0.0009,0.0039,0.0094,0.0233,0.0327,0.0472,0.056,0.065,0.069,0.0695,0.0675,0.055,0.0212,-0.0025,-0.0352,-0.0536,-0.0576,-0.0563,-0.0626,-0.0519,-0.0516,-0.0749,-0.0661,0,0,0,0,0]}],[{"header":{"parameterUnit":"m.s-1","parameterCategory":2,"la1":30.2991,"la2":30.254,"lo1":-89.0895,"lo2":-89.0444,"dy":0.0017,"dx":0.0017,"nx":28,"ny":28,"refTime":"2024-07-17T21:00:00:Z","depth":"4","parameterNumber":2,"parameterNumberName":"U-component_of_CURRENTS"},"data":[0,0,0,0,0,0,0,0,0,0,0,0,0,0,0,0,0,0,0,0,0,0,0,0,0,0,0,0,0,0,0,0,0,0,0,0,0,0,0,0,0,0,0,0,0,0,0,0,0,0,0,0,0,0,0,0,0,0,0.0688,0.0689,0,0.077,0.0771,0.0772,0.083,0.0831,0.0831,0.0832,0.0872,0.0873,0.0873,0,0,0,0,0,0,0,0,0,0,0,0,0,0.0595,0.0597,0.0688,0.0689,0.069,0.077,0.0771,0.0772,0.083,0.0831,0.0831,0.0832,0.0872,0.0873,0.0873,0,0,0,0,0,0,0,0,0,0,0,0,0,0.0651,0.0597,0.0688,0.073,0.0734,0.0769,0.0771,0.0772,0.083,0.0831,0.0832,0.0832,0.0872,0.0873,0.0874,0.0861,0,0,0.0876,0.0876,0,0,0,0,0,0,0,0,0.0648,0.0654,0.0722,0.0727,0.0732,0.0792,0.0753,0.08,0.083,0.0792,0.0832,0.0833,0.0842,0.0845,0.0857,0.0863,0.0864,0.0876,0.0877,0.0877,0.0877,0,0,0,0,0,0,0,0.0644,0.0651,0.0719,0.0723,0.073,0.0749,0.0758,0.0762,0.0809,0.0796,0.08,0.0811,0.0844,0.0856,0.0859,0.0865,0.0876,0.0877,0.0877,0.0878,0.0926,0.0927,0,0,0,0,0,0,0.0635,0.0647,0.0717,0.0722,0.0693,0.075,0.076,0.0771,0.081,0.0818,0.081,0.0814,0.0855,0.0858,0.086,0.0913,0.0877,0.0878,0.0878,0.0925,0.0926,0.0927,0,0,0,0,0,0,0.0632,0.064,0.0713,0.0687,0.0698,0.0751,0.0763,0.0772,0.0806,0.0822,0.0829,0.0837,0.0856,0.0859,0.0886,0.0912,0.0878,0.0879,0.0924,0.0926,0.0927,0.0975,0,0,0,0,0,0,0.0629,0.0639,0.0654,0.0687,0.0699,0.075,0.0762,0.0773,0.081,0.0816,0.0847,0.0851,0.0856,0.0885,0.0887,0.0912,0.0879,0.0923,0.0925,0.0926,0.0972,0.0978,0.0982,0,0,0,0,0,0.0626,0.0641,0.0654,0.0663,0.0715,0.0751,0.076,0.0798,0.0811,0.0831,0.0852,0.0851,0.0896,0.0887,0.0889,0.0915,0.0923,0.0925,0.0926,0.097,0.0977,0.0982,0,0,0,0,0,0,0.0608,0.0649,0.0664,0.0692,0.0726,0.0762,0.0789,0.0807,0.084,0.0851,0.086,0.0865,0.0899,0.0896,0.0885,0.0932,0.0909,0.0912,0.0942,0.0948,0.0953,0.0963,0.088,0,0,0,0,0,0.0609,0.0636,0.0672,0.0697,0.0716,0.0753,0.0776,0.0802,0.0831,0.0848,0.0869,0.0888,0.0904,0.0918,0.093,0.0954,0.0944,0.0972,0.0977,0.0981,0.099,0.0988,0.0993,0.0933,0.0933,0.0933,0,0,0.0609,0.0636,0.0652,0.0696,0.0727,0.0758,0.077,0.0813,0.0842,0.0844,0.0894,0.0906,0.0913,0.0946,0.096,0.095,0.0994,0.0983,0.0987,0.0994,0.099,0.0996,0.1001,0.0935,0.0934,0.0934,0,0,0.0618,0.0648,0.0673,0.0702,0.0752,0.0776,0.079,0.0838,0.0867,0.0905,0.0916,0.0945,0.097,0.0987,0.0994,0.1029,0.1018,0.1036,0.1074,0.1072,0.1077,0.1081,0.108,0.1084,0.1041,0.1042,0.1042,0,0.0617,0.0651,0.0685,0.0715,0.0744,0.0784,0.0814,0.0847,0.0898,0.0919,0.0928,0.0977,0.0989,0.1021,0.1047,0.1042,0.1039,0.1052,0.1079,0.1083,0.1086,0.1084,0.1088,0.1044,0.1044,0.1044,0.1043,0,0.0641,0.0673,0.0692,0.0743,0.0777,0.0812,0.0857,0.0897,0.0932,0.0958,0.1006,0.1026,0.1056,0.1067,0.1075,0.1112,0.1102,0.1082,0.1064,0.1095,0.1091,0.1094,0.1048,0.1047,0.1046,0.1045,0,0,0.0621,0.0694,0.0701,0.0729,0.0795,0.0823,0.0877,0.0929,0.096,0.1011,0.1045,0.1093,0.1112,0.1121,0.1134,0.1146,0.1178,0.114,0.1138,0.114,0.1181,0.1167,0.1168,0.1165,0.1166,0.1167,0.1169,0,0.063,0.0684,0.0721,0.0773,0.0805,0.0858,0.0899,0.0951,0.0996,0.1038,0.1071,0.1109,0.1128,0.1152,0.1171,0.1175,0.1188,0.118,0.115,0.1149,0.1133,0.1171,0.1169,0.1171,0.1172,0.1172,0.1173,0,0.0635,0.0674,0.0727,0.0791,0.081,0.085,0.0924,0.0966,0.1029,0.1062,0.1111,0.1133,0.1184,0.1181,0.1214,0.1211,0.1211,0.1206,0.1205,0.1178,0.114,0.1132,0.1177,0.1177,0.1176,0.1176,0.1176,0,0.0601,0.0672,0.0717,0.0741,0.0821,0.0861,0.0909,0.0979,0.1018,0.1087,0.1118,0.1163,0.1202,0.1206,0.1241,0.1224,0.126,0.1219,0.1202,0.12,0.1188,0.1184,0.1231,0.1231,0.1231,0.1231,0.1231,0,0.0588,0.0621,0.071,0.0734,0.0785,0.0852,0.0911,0.0962,0.1034,0.1076,0.1137,0.1174,0.1215,0.1248,0.1246,0.1254,0.1266,0.1222,0.1205,0.1209,0.1206,0.119,0.1185,0.1231,0.1231,0.1231,0.1231,0,0.0539,0.06,0.0647,0.0739,0.0773,0.0812,0.0913,0.0946,0.103,0.1087,0.1115,0.1197,0.1248,0.1282,0.1296,0.127,0.1263,0.1259,0.1285,0.1267,0.1193,0.1191,0.1211,0.121,0.121,0.121,0.1209,0,0.0521,0.0543,0.0637,0.0667,0.0716,0.0789,0.0832,0.0932,0.0972,0.1094,0.1109,0.1201,0.1249,0.1256,0.1295,0.1294,0.1284,0.1265,0.1213,0.1213,0.1194,0.1192,0.119,0.1209,0.1209,0.1209,0.1209,0,0.0472,0.0509,0.0546,0.0613,0.067,0.0724,0.0804,0.0832,0.0945,0.1024,0.1089,0.1134,0.1199,0.1229,0.1266,0.1254,0.1264,0.1261,0.126,0.1211,0.1211,0.1192,0.1191,0.1208,0.1208,0.1208,0.1208,0,0.0427,0.0434,0.049,0.0547,0.0608,0.0655,0.0706,0.0775,0.0836,0.0979,0.0998,0.1101,0.1184,0.1211,0.1232,0.1245,0.1209,0.115,0.1154,0.1156,0.1144,0.1136,0.1107,0,0,0,0,0,0.0381,0.0388,0.0424,0.0488,0.0547,0.0597,0.0681,0.0736,0.0851,0.0872,0.0941,0.1,0.1071,0.1122,0.1122,0.1203,0.1207,0.1199,0.1138,0.1202,0.1203,0.1198,0,0,0,0,0,0,0.0347,0.037,0.0396,0.0434,0.0473,0.0538,0.0594,0.0671,0.0696,0.0812,0.0851,0.0945,0.1018,0.106,0.1103,0.112,0.1064,0.1268,0.1266,0.1201,0.1202,0.1203,0.1198,0,0,0,0,0]},{"header":{"parameterUnit":"m.s-1","parameterCategory":2,"la1":30.2991,"la2":30.254,"lo1":-89.0895,"lo2":-89.0444,"dy":0.0017,"dx":0.0017,"nx":28,"ny":28,"refTime":"2024-07-17T21:00:00:Z","depth":"4","parameterNumber":3,"parameterNumberName":"V-component_of_CURRENTS"},"data":[0,0,0,0,0,0,0,0,0,0,0,0,0,0,0,0,0,0,0,0,0,0,0,0,0,0,0,0,0,0,0,0,0,0,0,0,0,0,0,0,0,0,0,0,0,0,0,0,0,0,0,0,0,0,0,0,0,0,-0.0052,-0.0053,0,-0.0109,-0.0109,-0.011,-0.0131,-0.0131,-0.013,-0.013,-0.0173,-0.0174,-0.0175,0,0,0,0,0,0,0,0,0,0,0,0,0,0.0021,0.002,-0.0052,-0.0053,-0.0054,-0.0109,-0.0109,-0.011,-0.0131,-0.0131,-0.013,-0.013,-0.0172,-0.0174,-0.0175,0,0,0,0,0,0,0,0,0,0,0,0,0,-0.0021,0.0019,-0.0052,-0.0071,-0.0073,-0.0108,-0.0109,-0.011,-0.0131,-0.0131,-0.013,-0.013,-0.0172,-0.0174,-0.0176,-0.0193,0,0,-0.0182,-0.0183,0,0,0,0,0,0,0,0,-0.0018,-0.0023,-0.0067,-0.0069,-0.0072,-0.0112,-0.0099,-0.0137,-0.0131,-0.0109,-0.013,-0.013,-0.0152,-0.0155,-0.0167,-0.0195,-0.0197,-0.0182,-0.0183,-0.0184,-0.0184,0,0,0,0,0,0,0,-0.0015,-0.0021,-0.0075,-0.0068,-0.0071,-0.0082,-0.0087,-0.0107,-0.0131,-0.0111,-0.0112,-0.0119,-0.0153,-0.0165,-0.0168,-0.0198,-0.0182,-0.0184,-0.0185,-0.0185,-0.027,-0.0271,0,0,0,0,0,0,-0.0008,-0.0018,-0.0073,-0.0076,-0.0044,-0.0083,-0.0089,-0.01,-0.0131,-0.0136,-0.0119,-0.0119,-0.0161,-0.0165,-0.0169,-0.0197,-0.0184,-0.0186,-0.0187,-0.0269,-0.027,-0.0271,0,0,0,0,0,0,-0.0006,-0.0013,-0.0071,-0.0048,-0.0056,-0.0085,-0.0096,-0.0101,-0.0119,-0.0137,-0.0142,-0.0132,-0.0161,-0.0166,-0.0193,-0.0198,-0.0187,-0.0188,-0.0268,-0.0269,-0.0271,-0.0248,0,0,0,0,0,0,-0.0004,-0.0012,-0.0022,-0.0048,-0.0057,-0.0093,-0.0097,-0.0102,-0.0123,-0.0124,-0.015,-0.0154,-0.0162,-0.019,-0.0195,-0.02,-0.019,-0.0266,-0.0268,-0.027,-0.0248,-0.0249,-0.025,0,0,0,0,0,-0.0001,-0.0017,-0.0022,-0.0029,-0.0069,-0.0094,-0.01,-0.0119,-0.0124,-0.0133,-0.0152,-0.0153,-0.0207,-0.0193,-0.0198,-0.0204,-0.0265,-0.0268,-0.027,-0.0247,-0.0249,-0.025,0,0,0,0,0,0,0.0004,-0.0022,-0.0027,-0.0051,-0.007,-0.0097,-0.0113,-0.0123,-0.0147,-0.0151,-0.0165,-0.017,-0.0197,-0.021,-0.0194,-0.0238,-0.0237,-0.0241,-0.0218,-0.022,-0.0221,-0.0231,-0.0192,0,0,0,0,0,0.0002,-0.0015,-0.0037,-0.0058,-0.0067,-0.0091,-0.0105,-0.0117,-0.0139,-0.015,-0.0167,-0.019,-0.0212,-0.0222,-0.0245,-0.0267,-0.0295,-0.0277,-0.0278,-0.0279,-0.0294,-0.0345,-0.0352,-0.0279,-0.0279,-0.0279,0,0,-0.0003,-0.0019,-0.0029,-0.0057,-0.0075,-0.0087,-0.0099,-0.0123,-0.0133,-0.0151,-0.0174,-0.0196,-0.0221,-0.0245,-0.0258,-0.0254,-0.0313,-0.0282,-0.0282,-0.0297,-0.0348,-0.0355,-0.0361,-0.0281,-0.0281,-0.028,0,0,-0.0014,-0.0034,-0.0047,-0.0059,-0.0083,-0.0096,-0.0102,-0.013,-0.0143,-0.0166,-0.0184,-0.0213,-0.024,-0.0263,-0.0275,-0.0302,-0.032,-0.0306,-0.0314,-0.0363,-0.0369,-0.0375,-0.0406,-0.0415,-0.0302,-0.0302,-0.0302,0,-0.002,-0.0037,-0.0055,-0.0065,-0.0079,-0.0097,-0.011,-0.0124,-0.0156,-0.0176,-0.017,-0.0238,-0.025,-0.0292,-0.0296,-0.0303,-0.0331,-0.0299,-0.0363,-0.037,-0.0376,-0.0407,-0.0417,-0.0301,-0.0301,-0.0301,-0.0301,0,-0.0033,-0.0046,-0.0056,-0.0071,-0.0087,-0.0105,-0.0121,-0.0141,-0.0156,-0.0174,-0.0222,-0.0247,-0.0292,-0.0293,-0.0298,-0.0352,-0.0356,-0.0358,-0.0354,-0.0382,-0.0413,-0.0424,-0.03,-0.03,-0.0301,-0.0301,0,0,-0.0052,-0.0063,-0.0067,-0.0072,-0.0094,-0.0109,-0.0128,-0.016,-0.0179,-0.0209,-0.0245,-0.0283,-0.031,-0.0329,-0.0345,-0.0378,-0.043,-0.0384,-0.0387,-0.0406,-0.0532,-0.0465,-0.0471,-0.0443,-0.0445,-0.0447,-0.053,0,-0.0061,-0.0072,-0.0079,-0.0094,-0.0105,-0.0124,-0.0139,-0.0168,-0.0193,-0.0229,-0.0271,-0.0309,-0.0318,-0.0339,-0.0378,-0.0419,-0.0461,-0.0407,-0.0513,-0.0516,-0.0445,-0.0482,-0.0453,-0.0538,-0.0541,-0.0543,-0.0544,0,-0.0074,-0.0079,-0.0093,-0.0107,-0.0115,-0.0127,-0.0167,-0.0181,-0.023,-0.0251,-0.0306,-0.0336,-0.0399,-0.0394,-0.0498,-0.0464,-0.0508,-0.0534,-0.0538,-0.0495,-0.047,-0.0512,-0.0564,-0.0563,-0.0561,-0.056,-0.0559,0,-0.0085,-0.0093,-0.0106,-0.011,-0.0126,-0.0145,-0.0159,-0.0199,-0.0205,-0.0275,-0.0283,-0.0377,-0.04,-0.0489,-0.0531,-0.0531,-0.0627,-0.0636,-0.0623,-0.0618,-0.0661,-0.0655,-0.0727,-0.0727,-0.0726,-0.0726,-0.0726,0,-0.0098,-0.0113,-0.011,-0.0119,-0.0128,-0.0149,-0.0168,-0.0195,-0.0223,-0.0219,-0.0298,-0.0303,-0.0424,-0.0476,-0.0548,-0.0603,-0.0649,-0.0639,-0.0643,-0.0648,-0.0639,-0.0668,-0.066,-0.0729,-0.0729,-0.0728,-0.0728,0,-0.012,-0.0119,-0.0128,-0.0135,-0.0134,-0.0146,-0.0143,-0.0145,-0.0182,-0.0179,-0.0197,-0.0259,-0.0332,-0.0431,-0.0553,-0.0594,-0.0673,-0.0681,-0.0666,-0.0664,-0.0637,-0.0627,-0.0712,-0.071,-0.0709,-0.0708,-0.0707,0,-0.0135,-0.0141,-0.0128,-0.0107,-0.0112,-0.0115,-0.01,-0.0127,-0.0112,-0.0129,-0.0114,-0.0185,-0.0232,-0.035,-0.0472,-0.0624,-0.0629,-0.068,-0.0687,-0.0645,-0.064,-0.0632,-0.0624,-0.0705,-0.0705,-0.0704,-0.0704,0,-0.015,-0.0145,-0.0132,-0.0086,-0.0065,-0.004,-0.0023,-0.0007,-0.0017,-0.0043,-0.0033,-0.0107,-0.0175,-0.0307,-0.0411,-0.0517,-0.0661,-0.0668,-0.0672,-0.0679,-0.0638,-0.0632,-0.0626,-0.07,-0.07,-0.0701,-0.0701,0,-0.0143,-0.0123,-0.0082,-0.0047,-0.001,0.0033,0.0029,0.0062,0.0067,0.005,0.0059,-0.0037,-0.0106,-0.0248,-0.0344,-0.0444,-0.0484,-0.0521,-0.0534,-0.0541,-0.0458,-0.0378,-0.0376,0,0,0,0,0,-0.0121,-0.0075,-0.0035,0.0016,0.0048,0.0062,0.0097,0.0094,0.0088,0.0115,0.0088,0.0027,-0.0111,-0.0181,-0.0271,-0.0344,-0.0517,-0.0452,-0.0569,-0.0675,-0.068,-0.0606,0,0,0,0,0,0,-0.0087,-0.0039,-0.0017,0.006,0.0092,0.0131,0.0146,0.0141,0.0152,0.0134,0.0062,0.0014,-0.013,-0.0058,-0.027,-0.0304,-0.0386,-0.053,-0.0531,-0.0672,-0.0677,-0.0681,-0.0606,0,0,0,0,0]}]]